• In Portugal
  • List of Countries
  • For 7 days
  • Water Temperature
  • Satellite Maps
  • Weather Map
  • Weather Widgets
  • user-avatar
    Login

    Hourly Weather Ordino

    Today, 23 October, Tuesday

    Time Temperature Precipitation Wind Pressure Humidity
    00:00 +5°C° 0 mm 2 mps 638 mmHg 60%
    01:00 +5°C° 0 mm 2 mps 638 mmHg 58%
    02:00 +5°C° 0 mm 2 mps 638 mmHg 57%
    03:00 +4°C° 0 mm 2 mps 638 mmHg 56%
    04:00 +4°C° 0 mm 2 mps 639 mmHg 56%
    05:00 +4°C° 0 mm 2 mps 639 mmHg 56%
    06:00 +4°C° 0 mm 2 mps 639 mmHg 56%
    07:00 +6°C° 0 mm 2 mps 640 mmHg 52%
    08:00 +8°C° 0 mm 2 mps 640 mmHg 48%
    09:00 +12°C° 0 mm 2 mps 641 mmHg 44%
    10:00 +13°C° 0 mm 2 mps 642 mmHg 42%
    11:00 +14°C° 0 mm 2 mps 642 mmHg 40%
    12:00 +15°C° 0 mm 2 mps 642 mmHg 38%
    13:00 +15°C° 0 mm 2 mps 642 mmHg 40%
    14:00 +14°C° 0 mm 2 mps 642 mmHg 42%
    15:00 +14°C° 0 mm 2 mps 641 mmHg 44%
    16:00 +12°C° 0 mm 2 mps 641 mmHg 51%
    17:00 +8°C° 0 mm 2 mps 640 mmHg 58%
    18:00 +6°C° 0 mm 2 mps 639 mmHg 66%
    19:00 +6°C° 0 mm 2 mps 639 mmHg 62%
    20:00 +5°C° 0 mm 2 mps 639 mmHg 58%
    21:00 +4°C° 0 mm 3 mps 639 mmHg 54%
    22:00 +4°C° 0 mm 3 mps 639 mmHg 51%
    23:00 +4°C° 0 mm 3 mps 639 mmHg 48%

    Tomorrow, 24 October, Wednesday

    Time Temperature Precipitation Wind Pressure Humidity
    00:00 +4°C° 0 mm 3 mps 639 mmHg 45%
    01:00 +4°C° 0 mm 3 mps 638 mmHg 43%
    02:00 +4°C° 0 mm 3 mps 638 mmHg 41%
    03:00 +4°C° 0 mm 3 mps 638 mmHg 40%
    04:00 +4°C° 0 mm 3 mps 638 mmHg 39%
    05:00 +5°C° 0 mm 3 mps 638 mmHg 39%
    06:00 +5°C° 0 mm 3 mps 638 mmHg 38%
    07:00 +8°C° 0 mm 3 mps 639 mmHg 38%
    08:00 +10°C° 0 mm 3 mps 639 mmHg 37%
    09:00 +12°C° 0 mm 3 mps 640 mmHg 36%
    10:00 +13°C° 0 mm 3 mps 640 mmHg 36%
    11:00 +14°C° 0 mm 3 mps 640 mmHg 36%
    12:00 +16°C° 0 mm 3 mps 641 mmHg 36%
    13:00 +16°C° 0 mm 3 mps 640 mmHg 39%
    14:00 +16°C° 0 mm 3 mps 639 mmHg 41%
    15:00 +14°C° 0 mm 3 mps 639 mmHg 44%
    16:00 +12°C° 0 mm 3 mps 638 mmHg 50%
    17:00 +10°C° 0 mm 3 mps 637 mmHg 57%
    18:00 +8°C° 0 mm 3 mps 636 mmHg 63%
    19:00 +8°C° 0 mm 3 mps 636 mmHg 62%
    20:00 +7°C° 0 mm 3 mps 636 mmHg 61%
    21:00 +7°C° 0 mm 3 mps 636 mmHg 60%
    22:00 +7°C° 0 mm 3 mps 636 mmHg 61%
    23:00 +7°C° 0 mm 3 mps 636 mmHg 62%

    Day after tomorrow, 25 October, Thursday

    Time Temperature Precipitation Wind Pressure Humidity
    00:00 +7°C° 0 mm 3 mps 636 mmHg 63%
    01:00 +7°C° 0 mm 3 mps 636 mmHg 63%
    02:00 +6°C° 0 mm 2 mps 635 mmHg 63%
    03:00 +6°C° 0 mm 2 mps 635 mmHg 63%
    04:00 +6°C° 0 mm 2 mps 635 mmHg 61%
    05:00 +6°C° 0 mm 2 mps 635 mmHg 60%
    06:00 +6°C° 0 mm 2 mps 635 mmHg 59%
    07:00 +9°C° 0 mm 2 mps 636 mmHg 54%
    08:00 +12°C° 0 mm 1 mps 637 mmHg 48%
    09:00 +14°C° 0 mm 1 mps 638 mmHg 43%
    10:00 +16°C° 0 mm 1 mps 638 mmHg 40%
    11:00 +18°C° 0 mm 1 mps 638 mmHg 38%
    12:00 +19°C° 0 mm 1 mps 638 mmHg 35%
    13:00 +18°C° 0 mm 1 mps 638 mmHg 38%
    14:00 +18°C° 0 mm 1 mps 637 mmHg 42%
    15:00 +16°C° 0 mm 1 mps 636 mmHg 45%
    16:00 +14°C° 0 mm 1 mps 636 mmHg 54%
    17:00 +12°C° 0 mm 1 mps 635 mmHg 63%
    18:00 +9°C° 0 mm 1 mps 634 mmHg 72%
    19:00 +9°C° 0 mm 1 mps 634 mmHg 72%
    20:00 +9°C° 0 mm 1 mps 634 mmHg 72%
    21:00 +8°C° 0 mm 1 mps 634 mmHg 72%
    22:00 +8°C° 0 mm 1 mps 634 mmHg 72%
    23:00 +8°C° 0 mm 1 mps 633 mmHg 71%

    26 October, Friday

    Time Temperature Precipitation Wind Pressure Humidity
    00:00 +8°C° 0 mm 1 mps 633 mmHg 71%
    01:00 +8°C° 0 mm 1 mps 633 mmHg 70%
    02:00 +8°C° 0 mm 1 mps 633 mmHg 69%
    03:00 +7°C° 0 mm 1 mps 632 mmHg 69%
    04:00 +7°C° 0 mm 1 mps 632 mmHg 68%
    05:00 +7°C° 0 mm 1 mps 632 mmHg 67%
    06:00 +7°C° 0 mm 1 mps 632 mmHg 66%
    07:00 +9°C° 0 mm 1 mps 633 mmHg 60%
    08:00 +11°C° 0 mm 1 mps 634 mmHg 53%
    09:00 +13°C° 0 mm 0 mps 635 mmHg 47%
    10:00 +14°C° 0 mm 1 mps 635 mmHg 45%
    11:00 +15°C° 0 mm 1 mps 635 mmHg 42%
    12:00 +16°C° 0 mm 2 mps 635 mmHg 40%
    13:00 +16°C° 0 mm 2 mps 634 mmHg 44%
    14:00 +15°C° 0 mm 2 mps 633 mmHg 47%
    15:00 +14°C° 0 mm 1 mps 633 mmHg 51%
    16:00 +13°C° 0 mm 1 mps 632 mmHg 60%
    17:00 +11°C° 0 mm 1 mps 632 mmHg 68%
    18:00 +8°C° 0 mm 0 mps 631 mmHg 77%
    19:00 +8°C° 0 mm 0 mps 631 mmHg 78%
    20:00 +8°C° 0 mm 1 mps 631 mmHg 80%
    21:00 +8°C° 0 mm 1 mps 631 mmHg 81%
    22:00 +8°C° 0 mm 1 mps 630 mmHg 82%
    23:00 +8°C° 0 mm 1 mps 630 mmHg 82%

    27 October, Saturday

    Time Temperature Precipitation Wind Pressure Humidity
    00:00 +7°C° 0 mm 1 mps 630 mmHg 83%
    01:00 +7°C° 0 mm 1 mps 630 mmHg 84%
    02:00 +6°C° 0 mm 2 mps 629 mmHg 84%
    03:00 +6°C° 0 mm 2 mps 629 mmHg 85%
    04:00 +5°C° 0.3 mm 2 mps 629 mmHg 86%
    05:00 +5°C° 0.3 mm 2 mps 629 mmHg 87%
    06:00 +5°C° 0.3 mm 2 mps 629 mmHg 88%
    07:00 +4°C° 0.9 mm 2 mps 629 mmHg 87%
    08:00 +3°C° 0.9 mm 3 mps 629 mmHg 86%
    09:00 +2°C° 0.9 mm 3 mps 629 mmHg 86%
    10:00 +2°C° 1.8 mm 3 mps 629 mmHg 87%
    11:00 +1°C° 1.8 mm 3 mps 628 mmHg 89%
    12:00 +1°C° 1.8 mm 3 mps 628 mmHg 90%
    13:00 0°C° 1.1 mm 3 mps 627 mmHg 88%
    14:00 -1°C° 1.1 mm 4 mps 627 mmHg 87%
    15:00 -2°C° 1.1 mm 4 mps 626 mmHg 85%
    16:00 -3°C° 0.1 mm 4 mps 626 mmHg 84%
    17:00 -3°C° 0.1 mm 4 mps 626 mmHg 83%
    18:00 -4°C° 0.1 mm 4 mps 625 mmHg 82%
    19:00 -5°C° 0.1 mm 4 mps 625 mmHg 82%
    20:00 -5°C° 0.1 mm 3 mps 625 mmHg 82%
    21:00 -5°C° 0.1 mm 3 mps 625 mmHg 83%
    22:00 -5°C° 0.1 mm 3 mps 625 mmHg 84%
    23:00 -6°C° 0.1 mm 3 mps 624 mmHg 84%

    28 October, Sunday

    Time Temperature Precipitation Wind Pressure Humidity
    00:00 -6°C° 0.1 mm 3 mps 624 mmHg 85%
    01:00 -6°C° 0.1 mm 3 mps 624 mmHg 85%
    02:00 -7°C° 0.1 mm 4 mps 624 mmHg 85%
    03:00 -8°C° 0.1 mm 4 mps 624 mmHg 85%
    04:00 -8°C° 0 mm 4 mps 624 mmHg 83%
    05:00 -9°C° 0 mm 4 mps 624 mmHg 82%
    06:00 -9°C° 0 mm 4 mps 623 mmHg 80%
    07:00 -8°C° 0.1 mm 4 mps 624 mmHg 77%
    08:00 -8°C° 0.1 mm 5 mps 624 mmHg 73%
    09:00 -7°C° 0.1 mm 5 mps 625 mmHg 70%
    10:00 -7°C° 0.1 mm 5 mps 625 mmHg 69%
    11:00 -6°C° 0.1 mm 5 mps 625 mmHg 68%
    12:00 -5°C° 0.1 mm 6 mps 625 mmHg 66%
    13:00 -6°C° 0.2 mm 6 mps 625 mmHg 68%
    14:00 -6°C° 0.2 mm 6 mps 624 mmHg 69%
    15:00 -7°C° 0.2 mm 7 mps 624 mmHg 70%
    16:00 -8°C° 0.2 mm 6 mps 624 mmHg 73%
    17:00 -8°C° 0.2 mm 6 mps 624 mmHg 76%
    18:00 -8°C° 0.2 mm 5 mps 624 mmHg 78%
    19:00 -9°C° 0.3 mm 6 mps 624 mmHg 79%
    20:00 -9°C° 0.3 mm 6 mps 624 mmHg 80%
    21:00 -9°C° 0.3 mm 6 mps 624 mmHg 80%
    22:00 -9°C° 0.1 mm 6 mps 624 mmHg 80%
    23:00 -9°C° 0.1 mm 6 mps 624 mmHg 80%

    29 October, Monday

    Time Temperature Precipitation Wind Pressure Humidity
    00:00 -9°C° 0.1 mm 6 mps 624 mmHg 80%
    01:00 -9°C° 0.1 mm 6 mps 624 mmHg 81%
    02:00 -8°C° 0.1 mm 5 mps 623 mmHg 81%
    03:00 -8°C° 0.1 mm 5 mps 623 mmHg 81%
    04:00 -9°C° 0.2 mm 6 mps 623 mmHg 81%
    05:00 -9°C° 0.2 mm 6 mps 623 mmHg 82%
    06:00 -9°C° 0.2 mm 6 mps 622 mmHg 82%
    07:00 -9°C° 0.3 mm 6 mps 623 mmHg 80%
    08:00 -8°C° 0.3 mm 7 mps 623 mmHg 78%
    09:00 -8°C° 0.3 mm 7 mps 623 mmHg 76%
    10:00 -7°C° 0.2 mm 8 mps 623 mmHg 75%
    11:00 -7°C° 0.2 mm 8 mps 623 mmHg 73%
    12:00 -7°C° 0.2 mm 8 mps 623 mmHg 72%
    13:00 -6°C° 0.1 mm 7 mps 623 mmHg 71%
    14:00 -6°C° 0.1 mm 7 mps 623 mmHg 70%
    15:00 -6°C° 0.1 mm 7 mps 623 mmHg 68%
    16:00 -6°C° 0 mm 6 mps 623 mmHg 72%
    17:00 -7°C° 0 mm 5 mps 623 mmHg 75%
    18:00 -9°C° 0 mm 4 mps 623 mmHg 79%
    19:00 -9°C° 0 mm 4 mps 623 mmHg 79%
    20:00 -9°C° 0 mm 4 mps 623 mmHg 80%
    21:00 -8°C° 0 mm 3 mps 624 mmHg 81%
    22:00 -8°C° 0 mm 3 mps 623 mmHg 81%
    23:00 -9°C° 0 mm 3 mps 623 mmHg 81%
    Show more